Los Angeles, CA

12:47 AM PST on February 08, 2016 (GMT -0800)
Los Angeles Downtown

Weather History for KCQT - September, 2012

Change the Weather History Date:

Saturday, September 15, 2012

  Actual Average Record
Temperature  
Mean Temperature 88 °F 73 °F  
Max Temperature 103 °F 83 °F 103 °F (2012)
Min Temperature 72 °F 63 °F 49 °F (1895)
Degree Days  
Heating Degree Days 0 0  
Month to date heating degree days 0 0  
Since 1 July heating degree days 0 0  
Cooling Degree Days 23 8  
Month to date cooling degree days 193 133  
Year to date cooling degree days 925 967  
Growing Degree Days 38 (Base 50)    
Moisture  
Dew Point 49 °F    
Average Humidity 37    
Maximum Humidity 64    
Minimum Humidity 10    
Precipitation  
Precipitation 0.00 in 0.01 in 2.39 in (2015)
Month to date precipitation T 0.06  
Year to date precipitation 4.94 10.72  
Since 1 July precipitation 0.01  
Sea Level Pressure  
Sea Level Pressure 29.93 in    
Wind  
Wind Speed 2 mph (WSW)    
Max Wind Speed 9 mph    
Max Gust Speed 16 mph    
Visibility 10 miles    
Events      
T = Trace of Precipitation, MM = Missing Value Source: NWS Daily Summary

Daily Weather History Graph

Daily Weather History Graph

Search for Another Location

Airport or City:

Trip Planner

Search our weather history database for the weather conditions in past years. The results will help you decide how hot, cold, wet, or windy it might be!

Date:

Astronomy

Sep. 15, 2012 Rise Set
Actual Time 6:36 AM PDT 6:58 PM PDT
Civil Twilight 6:11 AM PDT 7:23 PM PDT
Nautical Twilight 5:42 AM PDT 7:53 PM PDT
Astronomical Twilight 5:12 AM PDT 8:22 PM PDT
Moon 6:11 AM PDT (9/15) 6:34 PM PDT (9/15)
Length of Visible Light 13h 12m
Length of Day
12h 22m
Waning Crescent, 0% of the Moon is Illuminated
Sep 15
Waning Crescent
Sep 15
New
Sep 22
First Quarter
Sep 29
Full
Oct 8
Last Quarter

Hourly Weather History & Observations

Time (PDT) Temp. Dew Point Humidity Pressure Visibility Wind Dir Wind Speed Gust Speed Precip Events Conditions
12:47 AM 77.0 °F 57.9 °F 52% 29.94 in 10.0 mi Calm Calm - N/A   Clear
1:47 AM 75.9 °F 57.9 °F 54% 29.95 in 10.0 mi Calm Calm - N/A   Clear
2:47 AM 75.9 °F 57.9 °F 54% 29.94 in 10.0 mi Calm Calm - N/A   Clear
3:47 AM 73.9 °F 59.0 °F 59% 29.93 in 10.0 mi Calm Calm - N/A   Clear
4:47 AM 73.9 °F 54.0 °F 50% 29.92 in 9.0 mi Calm Calm - N/A   Clear
5:47 AM 73.0 °F 51.1 °F 46% 29.93 in 5.0 mi Calm Calm - N/A   Haze
6:47 AM 75.0 °F 48.0 °F 38% 29.95 in 10.0 mi Calm Calm - N/A   Clear
7:47 AM 78.1 °F 51.1 °F 39% 29.96 in 10.0 mi Calm Calm - N/A   Clear
8:47 AM 89.1 °F 41.0 °F 19% 29.96 in 10.0 mi Variable 3.5 mph - N/A   Clear
9:47 AM 93.9 °F 37.0 °F 14% 29.97 in 10.0 mi East 3.5 mph - N/A   Clear
10:47 AM 97.0 °F 36.0 °F 12% 29.97 in 10.0 mi Variable 3.5 mph - N/A   Clear
11:47 AM 100.0 °F 36.0 °F 11% 29.97 in 10.0 mi Variable 4.6 mph - N/A   Clear
12:47 PM 102.0 °F 35.1 °F 10% 29.96 in 10.0 mi Variable 4.6 mph - N/A   Clear
1:47 PM - - N/A% 29.95 in - North - - N/A   Unknown
2:47 PM - - N/A% 29.93 in - North - - N/A   Unknown
3:48 PM - - N/A% 29.92 in - West 6.9 mph - N/A   Unknown
4:47 PM 93.9 °F 39.0 °F 15% 29.89 in 10.0 mi West 6.9 mph - N/A   Clear
5:47 PM 93.0 °F 39.9 °F 16% 29.88 in 10.0 mi West 3.5 mph - N/A   Clear
6:47 PM 88.0 °F 44.1 °F 22% 29.88 in 10.0 mi Calm Calm - N/A   Clear
7:47 PM 82.0 °F 51.1 °F 34% 29.90 in 10.0 mi Calm Calm - N/A   Clear
8:47 PM 77.0 °F 57.0 °F 50% 29.92 in 10.0 mi Calm Calm - N/A   Clear
9:47 PM 75.0 °F 59.0 °F 57% 29.93 in 10.0 mi Calm Calm - N/A   Clear
10:47 PM 73.9 °F 59.0 °F 59% 29.94 in 10.0 mi Calm Calm - N/A   Clear
11:47 PM 73.0 °F 60.1 °F 64% 29.94 in 10.0 mi Calm Calm - N/A   Clear